When you browse on this site, cookies collect data to enhance your experience and personalize the content and advertising you see.
Visit our Privacy Policy to learn more. By continuing to use the site, you agree to this use of cookies and data.

Previsão horária em Mayrhofen

Hoje, 8 Julho, Quarta-feira

Tempo Temperatura Precipitação Vento Pressão Humidade
00:00 +5°C° 0 mm 0 m/s 618 mmHg 90%
01:00 +5°C° 0 mm 0 m/s 618 mmHg 90%
02:00 +5°C° 0 mm 0 m/s 618 mmHg 89%
03:00 +5°C° 0 mm 0 m/s 618 mmHg 89%
04:00 +5°C° 0 mm 0 m/s 618 mmHg 88%
05:00 +7°C° 0 mm 0 m/s 619 mmHg 81%
06:00 +9°C° 0 mm 0 m/s 620 mmHg 74%
07:00 +11°C° 0 mm 0 m/s 620 mmHg 66%
08:00 +14°C° 0 mm 1 m/s 621 mmHg 60%
09:00 +16°C° 0 mm 1 m/s 622 mmHg 53%
10:00 +19°C° 0 mm 1 m/s 622 mmHg 46%
11:00 +20°C° 0 mm 1 m/s 622 mmHg 43%
12:00 +21°C° 0 mm 1 m/s 623 mmHg 41%
13:00 +22°C° 0 mm 1 m/s 623 mmHg 39%
14:00 +21°C° 0 mm 2 m/s 623 mmHg 40%
15:00 +20°C° 0 mm 2 m/s 623 mmHg 41%
16:00 +20°C° 0 mm 2 m/s 622 mmHg 42%
17:00 +18°C° 0 mm 2 m/s 622 mmHg 52%
18:00 +17°C° 0 mm 2 m/s 622 mmHg 61%
19:00 +15°C° 0 mm 2 m/s 621 mmHg 71%
20:00 +13°C° 0 mm 1 m/s 621 mmHg 77%
21:00 +11°C° 0 mm 1 m/s 620 mmHg 83%
22:00 +9°C° 0 mm 1 m/s 620 mmHg 89%
23:00 +9°C° 0 mm 1 m/s 620 mmHg 90%

Amanhã, 9 Julho, Quinta-feira

Tempo Temperatura Precipitação Vento Pressão Humidade
00:00 +8°C° 0 mm 1 m/s 620 mmHg 91%
01:00 +8°C° 0 mm 1 m/s 620 mmHg 92%
02:00 +8°C° 0 mm 1 m/s 619 mmHg 91%
03:00 +8°C° 0 mm 1 m/s 619 mmHg 91%
04:00 +7°C° 0 mm 1 m/s 619 mmHg 90%
05:00 +10°C° 0 mm 1 m/s 620 mmHg 82%
06:00 +12°C° 0 mm 1 m/s 621 mmHg 73%
07:00 +13°C° 0 mm 0 m/s 622 mmHg 65%
08:00 +16°C° 0 mm 1 m/s 623 mmHg 57%
09:00 +19°C° 0 mm 1 m/s 623 mmHg 49%
10:00 +21°C° 0 mm 1 m/s 624 mmHg 42%
11:00 +22°C° 0 mm 1 m/s 624 mmHg 40%
12:00 +22°C° 0 mm 1 m/s 624 mmHg 39%
13:00 +23°C° 0 mm 1 m/s 624 mmHg 38%
14:00 +23°C° 0 mm 1 m/s 624 mmHg 41%
15:00 +22°C° 0 mm 1 m/s 623 mmHg 44%
16:00 +22°C° 0 mm 1 m/s 623 mmHg 47%
17:00 +20°C° 0.2 mm 1 m/s 623 mmHg 58%
18:00 +19°C° 0.2 mm 1 m/s 622 mmHg 69%
19:00 +18°C° 0.2 mm 1 m/s 621 mmHg 79%
20:00 +15°C° 0.1 mm 1 m/s 621 mmHg 83%
21:00 +13°C° 0.1 mm 1 m/s 621 mmHg 87%
22:00 +11°C° 0.1 mm 0 m/s 620 mmHg 91%
23:00 +11°C° 0 mm 1 m/s 620 mmHg 91%

Depois de amanhã, 10 Julho, Sexta-feira

Tempo Temperatura Precipitação Vento Pressão Humidade
00:00 +11°C° 0 mm 1 m/s 620 mmHg 91%
01:00 +11°C° 0 mm 1 m/s 619 mmHg 91%
02:00 +10°C° 0 mm 1 m/s 619 mmHg 91%
03:00 +10°C° 0 mm 1 m/s 619 mmHg 92%
04:00 +10°C° 0 mm 1 m/s 618 mmHg 92%
05:00 +12°C° 0 mm 1 m/s 619 mmHg 87%
06:00 +14°C° 0 mm 1 m/s 620 mmHg 83%
07:00 +16°C° 0 mm 1 m/s 620 mmHg 79%
08:00 +19°C° 0.2 mm 1 m/s 621 mmHg 72%
09:00 +20°C° 0.2 mm 1 m/s 621 mmHg 64%
10:00 +22°C° 0.2 mm 1 m/s 622 mmHg 57%
11:00 +23°C° 0.4 mm 1 m/s 622 mmHg 55%
12:00 +23°C° 0.4 mm 1 m/s 622 mmHg 52%
13:00 +24°C° 0.4 mm 1 m/s 622 mmHg 50%
14:00 +23°C° 0.7 mm 1 m/s 621 mmHg 54%
15:00 +22°C° 0.7 mm 1 m/s 620 mmHg 58%
16:00 +21°C° 0.7 mm 1 m/s 620 mmHg 63%
17:00 +20°C° 1.3 mm 1 m/s 620 mmHg 71%
18:00 +18°C° 1.3 mm 1 m/s 619 mmHg 80%
19:00 +16°C° 1.3 mm 1 m/s 619 mmHg 89%
20:00 +15°C° 1.4 mm 1 m/s 619 mmHg 92%
21:00 +14°C° 1.4 mm 1 m/s 619 mmHg 94%
22:00 +12°C° 1.4 mm 1 m/s 619 mmHg 96%
23:00 +12°C° 0.3 mm 1 m/s 619 mmHg 97%

11 Julho, Sábado

Tempo Temperatura Precipitação Vento Pressão Humidade
00:00 +12°C° 0.3 mm 1 m/s 619 mmHg 97%
01:00 +12°C° 0.3 mm 1 m/s 619 mmHg 98%
02:00 +12°C° 1.2 mm 1 m/s 619 mmHg 98%
03:00 +12°C° 1.2 mm 1 m/s 618 mmHg 98%
04:00 +11°C° 1.2 mm 1 m/s 618 mmHg 98%
05:00 +10°C° 2.1 mm 2 m/s 618 mmHg 98%
06:00 +10°C° 2.1 mm 2 m/s 618 mmHg 98%
07:00 +9°C° 2.1 mm 2 m/s 619 mmHg 98%
08:00 +9°C° 1.4 mm 2 m/s 619 mmHg 97%
09:00 +9°C° 1.4 mm 3 m/s 619 mmHg 96%
10:00 +9°C° 1.4 mm 3 m/s 619 mmHg 96%
11:00 +8°C° 1.2 mm 3 m/s 619 mmHg 96%
12:00 +8°C° 1.2 mm 3 m/s 619 mmHg 96%
13:00 +7°C° 1.2 mm 3 m/s 619 mmHg 96%
14:00 +8°C° 0.5 mm 2 m/s 620 mmHg 94%
15:00 +8°C° 0.5 mm 2 m/s 620 mmHg 93%
16:00 +8°C° 0.5 mm 2 m/s 620 mmHg 91%
17:00 +8°C° 0 mm 2 m/s 620 mmHg 89%
18:00 +8°C° 0 mm 2 m/s 620 mmHg 87%
19:00 +8°C° 0 mm 2 m/s 621 mmHg 86%
20:00 +7°C° 0 mm 2 m/s 621 mmHg 89%
21:00 +6°C° 0 mm 1 m/s 620 mmHg 92%
22:00 +5°C° 0 mm 1 m/s 620 mmHg 95%
23:00 +5°C° 0 mm 1 m/s 620 mmHg 95%

12 Julho, Domingo

Tempo Temperatura Precipitação Vento Pressão Humidade
00:00 +4°C° 0 mm 1 m/s 620 mmHg 94%
01:00 +4°C° 0 mm 1 m/s 620 mmHg 94%
02:00 +3°C° 0 mm 1 m/s 620 mmHg 93%
03:00 +3°C° 0 mm 1 m/s 620 mmHg 93%
04:00 +3°C° 0 mm 1 m/s 619 mmHg 92%
05:00 +5°C° 0 mm 1 m/s 620 mmHg 87%
06:00 +6°C° 0 mm 1 m/s 621 mmHg 81%
07:00 +8°C° 0 mm 1 m/s 622 mmHg 76%
08:00 +10°C° 0 mm 1 m/s 623 mmHg 67%
09:00 +12°C° 0 mm 1 m/s 624 mmHg 58%
10:00 +15°C° 0 mm 1 m/s 624 mmHg 48%
11:00 +16°C° 0 mm 2 m/s 625 mmHg 46%
12:00 +17°C° 0 mm 2 m/s 625 mmHg 43%
13:00 +18°C° 0 mm 2 m/s 625 mmHg 40%
14:00 +18°C° 0 mm 2 m/s 625 mmHg 41%
15:00 +18°C° 0 mm 2 m/s 625 mmHg 42%
16:00 +17°C° 0 mm 2 m/s 625 mmHg 44%
17:00 +16°C° 0 mm 2 m/s 624 mmHg 52%
18:00 +15°C° 0 mm 2 m/s 624 mmHg 60%
19:00 +13°C° 0 mm 2 m/s 623 mmHg 69%
20:00 +11°C° 0 mm 1 m/s 623 mmHg 76%
21:00 +9°C° 0 mm 1 m/s 622 mmHg 84%
22:00 +5°C° 0 mm 0 m/s 621 mmHg 91%
23:00 +6°C° 0 mm 1 m/s 621 mmHg 91%

13 Julho, Segunda-feira

Tempo Temperatura Precipitação Vento Pressão Humidade
00:00 +6°C° 0 mm 1 m/s 621 mmHg 91%
01:00 +6°C° 0 mm 1 m/s 621 mmHg 90%
02:00 +7°C° 0 mm 1 m/s 621 mmHg 91%
03:00 +7°C° 0 mm 1 m/s 621 mmHg 92%
04:00 +7°C° 0 mm 1 m/s 621 mmHg 93%
05:00 +9°C° 0 mm 1 m/s 621 mmHg 88%
06:00 +10°C° 0 mm 1 m/s 622 mmHg 82%
07:00 +12°C° 0 mm 1 m/s 623 mmHg 77%
08:00 +14°C° 0 mm 1 m/s 623 mmHg 67%
09:00 +16°C° 0 mm 1 m/s 624 mmHg 58%
10:00 +19°C° 0 mm 1 m/s 624 mmHg 48%
11:00 +20°C° 0 mm 1 m/s 625 mmHg 45%
12:00 +21°C° 0 mm 1 m/s 625 mmHg 41%
13:00 +21°C° 0 mm 2 m/s 625 mmHg 38%
14:00 +20°C° 0 mm 2 m/s 624 mmHg 41%
15:00 +20°C° 0 mm 2 m/s 624 mmHg 44%
16:00 +19°C° 0 mm 2 m/s 623 mmHg 47%
17:00 +18°C° 0.3 mm 2 m/s 623 mmHg 59%
18:00 +16°C° 0.3 mm 1 m/s 622 mmHg 71%
19:00 +15°C° 0.3 mm 1 m/s 622 mmHg 83%
20:00 +13°C° 0.3 mm 1 m/s 621 mmHg 87%
21:00 +10°C° 0.3 mm 0 m/s 621 mmHg 90%
22:00 +8°C° 0.3 mm 0 m/s 620 mmHg 94%
23:00 +8°C° 0 mm 0 m/s 620 mmHg 95%
Mostrar mais